This is the latest recevied weather packets stored in our database for station/object KE0WPC. If no packets are shown the sender has not sent any weather packets the latest 10 day(s).
| Time | Temp. | Humidity | Pressure | Rain* | Wind** | Luminosity | Snow |
|---|---|---|---|---|---|---|---|
| 1777729451 | 7.78° C | 57% | 1019.4 hPa | - | - | - | - |
| 1777729147 | 7.22° C | 57% | 1019.7 hPa | - | - | - | - |
| 1777728844 | 7.22° C | 58% | 1019.7 hPa | - | - | - | - |
| 1777728541 | 6.67° C | 59% | 1019.7 hPa | - | - | - | - |
| 1777728238 | 6.67° C | 59% | 1020 hPa | - | - | - | - |
| 1777727935 | 6.11° C | 59% | 1019.7 hPa | - | - | - | - |
| 1777727632 | 6.11° C | 59% | 1020 hPa | - | - | - | - |
| 1777727329 | 6.11° C | 60% | 1019.7 hPa | - | - | - | - |
| 1777727027 | 5.56° C | 61% | 1019.7 hPa | - | - | - | - |
| 1777726723 | 5.56° C | 61% | 1020 hPa | - | - | - | - |
| 1777726421 | 5° C | 62% | 1020 hPa | - | - | - | - |
| 1777726117 | 4.44° C | 62% | 1020 hPa | - | - | - | - |
| 1777725814 | 4.44° C | 63% | 1020.5 hPa | - | - | - | - |
| 1777725512 | 3.89° C | 63% | 1020 hPa | - | - | - | - |
| 1777725209 | 3.89° C | 63% | 1020 hPa | - | - | - | - |
| 1777724906 | 3.89° C | 63% | 1020 hPa | - | - | - | - |
| 1777724602 | 3.33° C | 63% | 1020.5 hPa | - | - | - | - |
| 1777724301 | 3.33° C | 63% | 1020 hPa | - | - | - | - |
| 1777723998 | 2.78° C | 64% | 1020.5 hPa | - | - | - | - |
| 1777723695 | 2.22° C | 64% | 1020 hPa | - | - | - | - |
| 1777723391 | 2.22° C | 64% | 1020 hPa | - | - | - | - |
| 1777723089 | 2.22° C | 64% | 1020 hPa | - | - | - | - |
| 1777722786 | 1.67° C | 64% | 1020 hPa | - | - | - | - |
| 1777722481 | 1.67° C | 64% | 1020 hPa | - | - | - | - |
| 1777722179 | 1.67° C | 64% | 1020 hPa | - | - | - | - |
* Rain since midnight (hover to see other rain measurements)
** Current wind speed in m/s (hover to see current wind gust speed)